Terug naar catalogus

STARLINK-5928

ActiefCommunicatieVLEO
NORAD 55958·PAYLOAD·🇺🇸 United States

Gelanceerd Mar 17, 2023 vanaf Vandenberg Space Force Base

Loading…

Volgende Passages (komende 24 uur)

TLE

VersSource: CelesTrak SupGP

Epoch: Sep 15, 2026, 02:27 UTC

1 55958C 23037AW  26258.10256944  .00026832  00000+0  22488-2 0  2585
2 55958  70.0001 146.8898 0002753 270.7623 141.6166 14.98315533    18

Volg STARLINK-5928 in realtime met AllMySat

Download on the App Store